Weather History for Fairhope, AL

Change the Weather History Date:

Monday, November 19, 2012

  Actual Average (KBFM) Record (KBFM)
Temperature  
Mean Temperature 58 °F -  
Max Temperature 71 °F 66 °F 75 °F (1998)
Min Temperature 44 °F 48 °F 25 °F (2014)
Degree Days  
Heating Degree Days 8    
Growing Degree Days 8 (Base 50)    
Moisture  
Dew Point 46 °F    
Average Humidity 71    
Maximum Humidity 100    
Minimum Humidity 41    
Precipitation  
Precipitation 0.00 in - - ()
Sea Level Pressure  
Sea Level Pressure 30.23 in    
Wind  
Wind Speed 3 mph (North)    
Max Wind Speed 10 mph    
Max Gust Speed -    
Visibility 8 miles    
Events      
Averages and records for this station are not official NWS values.
T = Trace of Precipitation, MM = Missing Value Source: NWS Daily Summary

Daily Weather History Graph

Daily Weather History Graph

Search for Another Location

Airport:

Trip Planner

Search our weather history database for the weather conditions in past years. The results will help you decide how hot, cold, wet, or windy it might be!

Date:

Astronomy

Nov. 19, 2012 Rise Set
Actual Time 6:21 AM CST 4:52 PM CST
Civil Twilight 5:55 AM CST 5:18 PM CST
Nautical Twilight 5:26 AM CST 5:47 PM CST
Astronomical Twilight 4:57 AM CST 6:16 PM CST
Moon 11:33 AM CST (11/19) 11:08 PM CST (11/19)
Length of Visible Light 11h 22m
Length of Day
10h 31m
Waxing Crescent, 41% of the Moon is Illuminated
Nov 19
Waxing Crescent
Nov 20
First Quarter
Nov 28
Full
Dec 6
Last Quarter
Dec 13
New

Hourly Weather History & Observations

Time (CST) Temp. Dew Point Humidity Pressure Visibility Wind Dir Wind Speed Gust Speed Precip Events Conditions
12:15 AM 50.0 °F 44.6 °F 82% 30.27 in 10.0 mi NNE 3.5 mph - N/A   Clear
12:35 AM 50.0 °F 42.8 °F 76% 30.27 in 10.0 mi Calm Calm - N/A   Clear
12:55 AM 50.0 °F 42.8 °F 76% 30.27 in 10.0 mi NNE 4.6 mph - N/A   Clear
1:15 AM 50.0 °F 42.8 °F 76% 30.27 in 10.0 mi NNE 3.5 mph - N/A   Clear
1:35 AM 50.0 °F 42.8 °F 76% 30.27 in 10.0 mi NE 4.6 mph - N/A   Scattered Clouds
1:55 AM 50.0 °F 42.8 °F 76% 30.26 in 10.0 mi NE 4.6 mph - N/A   Scattered Clouds
2:15 AM 50.0 °F 42.8 °F 76% 30.27 in 10.0 mi NNE 4.6 mph - N/A   Clear
2:35 AM 50.0 °F 42.8 °F 76% 30.26 in 10.0 mi NNE 4.6 mph - N/A   Clear
2:55 AM 50.0 °F 42.8 °F 76% 30.26 in 10.0 mi NNE 4.6 mph - N/A   Clear
3:15 AM 50.0 °F 42.8 °F 76% 30.26 in 10.0 mi NNE 4.6 mph - N/A   Clear
3:35 AM 50.0 °F 42.8 °F 76% 30.25 in 10.0 mi NNE 3.5 mph - N/A   Clear
3:55 AM 50.0 °F 42.8 °F 76% 30.26 in 10.0 mi NNE 3.5 mph - N/A   Clear
4:15 AM 48.2 °F 42.8 °F 82% 30.25 in 10.0 mi North 4.6 mph - N/A   Clear
4:35 AM 48.2 °F 42.8 °F 82% 30.26 in 10.0 mi NNE 3.5 mph - N/A   Clear
4:55 AM 50.0 °F 42.8 °F 76% 30.26 in 10.0 mi ENE 4.6 mph - N/A   Clear
5:15 AM 50.0 °F 42.8 °F 76% 30.25 in 10.0 mi NE 3.5 mph - N/A   Clear
5:35 AM 50.0 °F 42.8 °F 76% 30.26 in 10.0 mi NE 5.8 mph - N/A   Clear
5:55 AM 50.0 °F 42.8 °F 76% 30.25 in 10.0 mi NE 4.6 mph - N/A   Clear
6:15 AM 50.0 °F 44.6 °F 82% 30.26 in 10.0 mi NE 4.6 mph - N/A   Clear
6:35 AM 50.0 °F 44.6 °F 82% 30.26 in 10.0 mi NE 4.6 mph - N/A   Clear
6:55 AM 51.8 °F 44.6 °F 76% 30.27 in 10.0 mi ENE 4.6 mph - N/A   Clear
7:15 AM 53.6 °F 46.4 °F 77% 30.27 in 10.0 mi ENE 5.8 mph - N/A   Clear
7:35 AM 53.6 °F 46.4 °F 77% 30.27 in 10.0 mi ENE 5.8 mph - N/A   Clear
7:55 AM 55.4 °F 46.4 °F 72% 30.27 in 10.0 mi ENE 4.6 mph - N/A   Clear
8:15 AM 59.0 °F 46.4 °F 63% 30.28 in 10.0 mi ENE 5.8 mph - N/A   Clear
8:55 AM 62.6 °F 50.0 °F 63% 30.28 in 10.0 mi ENE 3.5 mph - N/A   Clear
9:15 AM 64.4 °F 50.0 °F 59% 30.28 in 10.0 mi Calm Calm - N/A   Clear
9:55 AM 68.0 °F 50.0 °F 52% 30.29 in 10.0 mi Calm Calm - N/A   Clear
10:15 AM 68.0 °F 50.0 °F 52% 30.29 in 10.0 mi Calm Calm - N/A   Clear
10:35 AM 69.8 °F 50.0 °F 49% 30.28 in 7.0 mi Calm Calm - N/A   Clear
10:55 AM 69.8 °F 51.8 °F 53% 30.28 in 10.0 mi West 4.6 mph - N/A   Clear
11:15 AM 69.8 °F 51.8 °F 53% 30.27 in 7.0 mi WNW 4.6 mph - N/A   Clear
11:35 AM 71.6 °F 51.8 °F 50% 30.26 in 7.0 mi WNW 3.5 mph - N/A   Clear
11:55 AM 71.6 °F 51.8 °F 50% 30.25 in 7.0 mi NW 4.6 mph - N/A   Clear
12:15 PM 71.6 °F 50.0 °F 46% 30.24 in 10.0 mi NW 4.6 mph - N/A   Clear
12:35 PM 71.6 °F 50.0 °F 46% 30.23 in 7.0 mi WNW 5.8 mph - N/A   Clear
12:55 PM 71.6 °F 50.0 °F 46% 30.22 in 10.0 mi West 6.9 mph - N/A   Clear
1:15 PM 71.6 °F 48.2 °F 43% 30.22 in 7.0 mi WNW 6.9 mph - N/A   Clear
1:35 PM 71.6 °F 48.2 °F 43% 30.21 in 7.0 mi West 6.9 mph - N/A   Clear
1:55 PM 71.6 °F 46.4 °F 41% 30.20 in 7.0 mi West 5.8 mph - N/A   Clear
2:15 PM 71.6 °F 46.4 °F 41% 30.19 in 7.0 mi WNW 6.9 mph - N/A   Clear
2:35 PM 71.6 °F 46.4 °F 41% 30.19 in 7.0 mi NW 5.8 mph - N/A   Clear
2:55 PM 71.6 °F 46.4 °F 41% 30.18 in 7.0 mi NNW 6.9 mph - N/A   Clear
3:15 PM 71.6 °F 46.4 °F 41% 30.18 in 10.0 mi NNW 5.8 mph - N/A   Clear
3:35 PM 71.6 °F 46.4 °F 41% 30.18 in 7.0 mi NNW 10.4 mph - N/A   Clear
3:55 PM 69.8 °F 46.4 °F 43% 30.18 in 10.0 mi NNW 4.6 mph - N/A   Clear
4:15 PM 69.8 °F 48.2 °F 46% 30.17 in 7.0 mi Calm Calm - N/A   Clear
4:35 PM 64.4 °F 50.0 °F 59% 30.17 in 7.0 mi Calm Calm - N/A   Clear
4:55 PM 60.8 °F 50.0 °F 68% 30.17 in 7.0 mi Calm Calm - N/A   Clear
5:15 PM 59.0 °F 51.8 °F 77% 30.17 in 10.0 mi Calm Calm - N/A   Clear
5:35 PM 55.4 °F 51.8 °F 88% 30.17 in 10.0 mi Calm Calm - N/A   Clear
5:55 PM 53.6 °F 50.0 °F 88% 30.17 in 10.0 mi Calm Calm - N/A   Clear
6:35 PM 51.8 °F 50.0 °F 94% 30.18 in 10.0 mi Calm Calm - N/A   Clear
6:55 PM 50.0 °F 50.0 °F 100% 30.19 in 10.0 mi Calm Calm - N/A   Clear
7:15 PM 48.2 °F 46.4 °F 93% 30.19 in 10.0 mi Calm Calm - N/A   Clear
7:35 PM 50.0 °F 48.2 °F 94% 30.19 in 10.0 mi Calm Calm - N/A   Clear
7:55 PM 48.2 °F 46.4 °F 93% 30.20 in 7.0 mi Calm Calm - N/A   Clear
8:15 PM 48.2 °F 46.4 °F 93% 30.20 in 7.0 mi Calm Calm - N/A   Clear
8:35 PM 48.2 °F 46.4 °F 93% 30.20 in 5.0 mi Calm Calm - N/A   Clear
8:55 PM 46.4 °F 44.6 °F 93% 30.20 in 7.0 mi Calm Calm - N/A   Clear
9:15 PM 46.4 °F 44.6 °F 93% 30.20 in 5.0 mi Calm Calm - N/A   Clear
9:35 PM 46.4 °F 44.6 °F 93% 30.20 in 5.0 mi Calm Calm - N/A   Clear
9:55 PM 46.4 °F 44.6 °F 93% 30.19 in 2.5 mi Calm Calm - N/A   Clear
10:15 PM 44.6 °F 44.6 °F 100% 30.19 in 4.0 mi Calm Calm - N/A   Clear
10:55 PM 44.6 °F 44.6 °F 100% 30.19 in 5.0 mi Calm Calm - N/A   Clear
11:15 PM 44.6 °F 44.6 °F 100% 30.19 in 4.0 mi Calm Calm - N/A   Clear
11:35 PM 44.6 °F 42.8 °F 93% 30.18 in 2.0 mi Calm Calm - N/A   Clear
11:55 PM 44.6 °F 44.6 °F 100% 30.19 in 5.0 mi Calm Calm - N/A   Clear